Total_Precipitation_Accumulation
1.20 1.31 1.44 1.49 1.52 1.59 1.70 1.80 1.87 1.82 1.64 1.47 1.48 1.48 1.47 1.49 1.65 1.32 1.23 1.41 1.31 1.25 1.21 1.14 1.07 1.04 1.03 1.07 1.13 1.22 1.27 1.30 1.33 1.37 1.43 1.52 1.58 1.65
0.94 1.02 1.13 1.23 1.32 1.42 1.54 1.62 1.65 1.65 1.62 1.45 1.39 1.40 1.38 1.34 1.45 1.12 1.10 1.28 1.16 1.07 1.01 1.00 0.98 0.95 0.93 0.94 0.98 1.02 1.03 1.02 1.04 1.04 1.04 1.08 1.20 1.32
0.95 1.00 1.04 1.08 1.14 1.18 1.24 1.32 1.43 1.51 1.60 1.56 1.43 1.39 1.37 1.33 1.25 1.07 0.98 0.93 0.97 1.02 0.95 0.91 0.87 0.84 0.83 0.81 0.75 0.74 0.75 0.76 0.80 0.82 0.82 0.85 0.90 0.98
0.85 0.88 0.89 0.88 0.94 1.00 1.07 1.10 1.18 1.27 1.39 1.49 1.42 1.30 1.25 1.23 1.18 1.10 0.93 0.82 0.79 0.84 0.80 0.76 0.74 0.72 0.69 0.67 0.67 0.63 0.59 0.58 0.61 0.64 0.67 0.70 0.76 0.83
0.72 0.72 0.74 0.76 0.78 0.81 0.85 0.91 0.96 1.00 1.12 1.18 1.19 1.14 1.10 1.04 1.06 1.02 0.91 0.90 0.76 0.76 0.68 0.63 0.60 0.58 0.55 0.52 0.53 0.58 0.56 0.50 0.45 0.45 0.48 0.54 0.58 0.61
0.54 0.56 0.62 0.68 0.69 0.71 0.70 0.72 0.76 0.85 0.94 1.01 1.01 1.01 0.99 0.93 0.95 0.98 0.93 0.86 0.76 0.62 0.64 0.55 0.49 0.45 0.45 0.45 0.43 0.42 0.43 0.46 0.47 0.44 0.39 0.36 0.36 0.36
0.42 0.42 0.43 0.50 0.56 0.56 0.54 0.60 0.68 0.77 0.82 0.86 0.84 0.81 0.82 0.87 0.88 0.85 0.81 0.76 0.71 0.61 0.63 0.58 0.54 0.53 0.55 0.52 0.46 0.42 0.41 0.38 0.35 0.35 0.34 0.31 0.30 0.28
0.41 0.43 0.39 0.40 0.42 0.43 0.46 0.57 0.68 0.71 0.75 0.81 0.79 0.79 0.79 0.79 0.80 0.80 0.83 0.83 0.82 0.67 0.65 0.60 0.54 0.59 0.56 0.52 0.47 0.41 0.38 0.39 0.35 0.31 0.30 0.29 0.29 0.28
0.40 0.41 0.35 0.34 0.39 0.41 0.44 0.50 0.55 0.56 0.64 0.78 0.87 0.84 0.83 0.85 0.88 0.84 0.88 0.91 0.86 0.76 0.82 0.76 0.58 0.54 0.44 0.39 0.38 0.33 0.34 0.37 0.36 0.32 0.31 0.30 0.29 0.29
0.38 0.40 0.42 0.41 0.41 0.42 0.43 0.46 0.52 0.57 0.60 0.65 0.80 0.79 0.74 0.77 0.82 0.85 0.89 0.89 0.86 0.82 0.88 0.89 0.64 0.54 0.42 0.48 0.44 0.32 0.27 0.29 0.33 0.32 0.31 0.30 0.30 0.31
0.32 0.30 0.33 0.37 0.39 0.38 0.42 0.52 0.57 0.62 0.52 0.55 0.64 0.71 0.73 0.73 0.71 0.76 0.93 1.06 1.01 0.82 0.80 0.87 0.72 0.61 0.52 0.51 0.46 0.37 0.30 0.27 0.25 0.26 0.29 0.31 0.32 0.34
0.35 0.32 0.29 0.30 0.31 0.31 0.40 0.54 0.64 0.64 0.57 0.60 0.74 0.83 0.81 0.87 0.82 0.83 1.03 1.09 1.04 0.98 0.82 0.84 0.80 0.77 0.73 0.56 0.50 0.46 0.42 0.37 0.29 0.26 0.24 0.26 0.34 0.39
0.39 0.40 0.35 0.26 0.23 0.26 0.34 0.45 0.53 0.52 0.60 0.77 0.85 0.87 0.90 0.94 0.89 0.84 0.94 1.02 1.08 1.12 0.91 0.90 0.91 0.90 0.91 0.71 0.51 0.47 0.49 0.50 0.50 0.50 0.45 0.36 0.34 0.35
0.40 0.38 0.34 0.25 0.23 0.27 0.33 0.42 0.45 0.52 0.70 0.87 0.92 0.92 0.85 0.84 0.84 0.80 0.84 0.87 0.92 0.95 0.86 0.88 0.98 1.02 0.95 0.79 0.62 0.50 0.52 0.59 0.69 0.77 0.75 0.65 0.51 0.46
0.29 0.26 0.25 0.27 0.30 0.42 0.44 0.43 0.53 0.72 0.83 0.88 0.94 0.94 0.84 0.75 0.71 0.67 0.72 0.81 0.83 0.74 0.61 0.63 0.81 0.84 0.86 0.82 0.75 0.66 0.63 0.63 0.75 0.90 0.93 0.85 0.72 0.60
0.28 0.28 0.34 0.40 0.45 0.53 0.60 0.67 0.73 0.78 0.76 0.82 0.86 0.83 0.71 0.65 0.67 0.67 0.71 0.78 0.83 0.77 0.60 0.52 0.60 0.70 0.76 0.71 0.73 0.73 0.69 0.76 0.79 0.89 1.02 1.05 0.90 0.66
0.24 0.38 0.57 0.63 0.68 0.73 0.77 0.82 0.86 0.80 0.74 0.73 0.75 0.75 0.70 0.66 0.63 0.60 0.66 0.68 0.74 0.74 0.65 0.55 0.53 0.56 0.55 0.57 0.66 0.69 0.69 0.76 0.86 0.93 1.04 1.18 1.13 0.86
0.29 0.50 0.61 0.64 0.69 0.69 0.69 0.74 0.80 0.79 0.72 0.67 0.68 0.68 0.67 0.63 0.62 0.57 0.58 0.67 0.73 0.68 0.62 0.54 0.50 0.50 0.50 0.47 0.54 0.63 0.68 0.83 0.93 0.94 0.90 1.03 1.23 1.08
0.43 0.56 0.58 0.61 0.64 0.60 0.60 0.65 0.69 0.68 0.62 0.59 0.58 0.56 0.54 0.54 0.57 0.57 0.55 0.55 0.56 0.52 0.49 0.43 0.42 0.48 0.53 0.59 0.60 0.72 0.78 0.83 0.87 0.87 0.87 0.94 1.14 1.11
0.52 0.55 0.55 0.55 0.56 0.56 0.56 0.55 0.52 0.48 0.44 0.46 0.49 0.49 0.47 0.48 0.50 0.52 0.47 0.44 0.46 0.45 0.42 0.40 0.37 0.40 0.48 0.55 0.74 0.87 0.83 0.71 0.71 0.82 0.93 0.97 1.06 1.07
0.47 0.48 0.48 0.47 0.47 0.53 0.51 0.45 0.42 0.39 0.36 0.35 0.37 0.41 0.42 0.41 0.43 0.41 0.36 0.30 0.33 0.37 0.40 0.40 0.36 0.31 0.34 0.40 0.57 0.77 0.81 0.87 0.82 0.82 0.87 0.89 0.79 0.68
0.39 0.40 0.38 0.36 0.39 0.40 0.36 0.35 0.34 0.35 0.31 0.27 0.27 0.28 0.31 0.34 0.34 0.32 0.29 0.28 0.30 0.30 0.32 0.35 0.33 0.31 0.33 0.41 0.56 0.71 0.73 0.65 0.63 0.68 0.72 0.61 0.49 0.51
0.37 0.35 0.33 0.31 0.30 0.30 0.29 0.31 0.30 0.29 0.27 0.27 0.26 0.25 0.25 0.26 0.24 0.22 0.22 0.20 0.20 0.21 0.23 0.26 0.27 0.27 0.29 0.32 0.38 0.44 0.43 0.37 0.30 0.30 0.44 0.56 0.53 0.56